User: anonymous   Login
Location: Unspecified
(0.0000°N, 0.0000°E)
Time: 11:48:06
(UTC+00:00)
Language:

GSAT 7 - Orbit

View from above orbital plane
View from above orbital plane
View from above satellite
View from above satellite

Ground track
Ground track

The orbit data is extracted from the following two-line orbital elements,

1 39234U 13044B   17057.35987217 -.00000089  00000-0  00000+0 0  9992
2 39234   0.0325 234.9494 0003777  57.8600  67.1305  1.00271391 12838
Epoch (UTC): 26 February 2017 08:38:12
Eccentricity: 0.0003777
inclination: 0.0325°
perigee height: 35770 km
apogee height: 35802 km
right ascension of ascending node: 234.9494°
argument of perigee: 57.8600°
revolutions per day: 1.00271391
mean anomaly at epoch: 67.1305°
orbit number at epoch: 1283

The dashed part of the orbit path shows where the satellite is in the earth's shadow,  

DLR